EW5897 Weather Reports


Display with metric or nautical units.
time (UTC)temp
F
wind
direction
speed
MPH
gust
MPH
rain 1hr
in
rain 24hr
in
rain mn
in
humidity
%
barometer
mb
20260901035918 57 270 6.0 12.0 0.00 0.07 0.06 95 1006.5
20260901033919 56 250 5.0 10.0 0.00 0.08 0.06 95 1006.2
20260901031926 57 267 5.0 11.0 0.00 0.08 0.06 94 1006.1
20260901025924 57 261 8.0 13.0 0.00 0.08 0.06 93 1005.8
20260901024415 58 299 9.0 16.0 0.00 0.08 0.06 93 1005.7
20260901022431 58 276 13.0 19.0 0.00 0.08 0.06 94 1005.2
20260901020926 58 256 12.0 19.0 0.01 0.08 0.06 95 1004.9
20260901014937 58 263 11.0 18.0 0.01 0.08 0.06 96 1004.5
20260901013410 57 265 8.0 12.0 0.01 0.08 0.06 96 1004.4
20260901011430 57 275 7.0 12.0 0.00 0.07 0.05 96 1004.3
20260901005424 57 303 10.0 17.0 0.00 0.07 0.05 95 1004.0
20260901003916 57 252 10.0 16.0 0.00 0.07 0.05 95 1003.7
20260901001935 57 263 11.0 18.0 0.01 0.07 0.05 95 1003.3
20260901000428 57 266 14.0 23.0 0.01 0.07 0.05 94 1002.9
20260831234909 57 275 10.0 20.0 0.01 0.07 0.05 95 1002.7
20260831232932 56 275 8.0 14.0 0.01 0.06 0.04 96 1002.3
20260831231421 55 269 5.0 9.0 0.02 0.06 0.04 95 1002.1
20260831225436 55 233 4.0 9.0 0.02 0.09 0.04 95 1002.1
20260831223426 55 259 5.0 7.0 0.01 0.08 0.03 94 1001.9
20260831221431 55 238 6.0 12.0 0.00 0.07 0.02 93 1001.5
20260831214423 57 240 10.0 14.0 0.00 0.07 0.02 87 1001.1
20260831212917 58 252 9.0 16.0 0.00 0.07 0.02 82 1000.8
20260831210925 59 217 10.0 14.0 0.00 0.07 0.02 80 1000.5
20260831204920 60 263 11.0 18.0 0.00 0.48 0.02 77 1000.1
20260831202919 61 260 12.0 16.0 0.00 0.48 0.02 74 999.5
20260831201415 61 236 10.0 19.0 0.00 0.48 0.02 73 999.1
20260831195421 61 260 10.0 16.0 0.01 0.74 0.02 74 998.8
20260831193917 62 265 10.0 15.0 0.01 0.74 0.02 72 998.2
20260831191926 63 283 8.0 14.0 0.01 0.74 0.02 70 997.8
20260831185923 62 223 7.0 13.0 0.00 0.73 0.01 70 997.4
20260831184419 61 250 6.0 11.0 0.00 0.73 0.01 74 997.2
20260831182915 60 253 4.0 11.0 0.00 0.73 0.01 73 996.9
20260831180923 59 252 4.0 9.0 0.00 0.73 0.01 76 996.6
20260831175423 59 255 3.0 8.0 0.00 0.73 0.01 77 996.3
20260831173430 59 269 3.0 7.0 0.00 0.73 0.01 77 996.1
20260831171427 58 230 1.0 6.0 0.00 0.73 0.01 78 996.0
20260831165425 58 185 1.0 6.0 0.00 0.74 0.01 78 995.8
20260831163425 57 167 3.0 8.0 0.00 0.74 0.01 79 995.6
20260831161425 57 163 2.0 11.0 0.00 0.74 0.01 81 995.5
20260831155912 57 215 2.0 9.0 0.00 0.74 0.01 84 995.5
20260831153928 57 219 5.0 9.0 0.00 0.74 0.01 86 995.6
20260831151923 56 232 7.0 14.0 0.00 0.74 0.01 87 995.5
20260831145925 55 228 11.0 17.0 0.00 0.74 0.01 88 995.5
20260831144424 54 214 8.0 13.0 0.00 0.74 0.01 90 995.6
20260831142915 53 233 7.0 12.0 0.00 0.74 0.01 92 995.8
20260831140917 53 234 6.0 11.0 0.00 0.74 0.01 93 995.8
20260831135410 52 234 4.0 11.0 0.00 0.74 0.01 94 996.0
20260831133419 51 207 4.0 10.0 0.00 0.74 0.01 95 996.2
20260831130927 50 204 4.0 9.0 0.01 0.74 0.01 95 996.9
20260831124926 50 204 6.0 10.0 0.01 0.74 0.01 95 997.2
20260831123423 50 200 3.0 8.0 0.01 0.74 0.01 95 997.5
20260831121916 49 176 3.0 8.0 0.00 0.73 0.00 96 997.5
20260831115915 49 216 2.0 7.0 0.00 0.73 0.00 96 997.6
20260831114411 48 183 1.0 7.0 0.00 0.73 0.00 96 998.0
20260831112905 48 224 2.0 6.0 0.00 0.73 0.00 96 998.2
20260831110931 48 173 1.0 5.0 0.00 0.73 0.00 96 998.3
20260831104928 47 160 0.0 3.0 0.00 0.73 0.00 95 998.2
20260831103418 47 179 0.0 0.0 0.00 0.73 0.00 95 998.7
20260831101419 47 175 0.0 2.0 0.00 0.73 0.00 95 998.9
20260831095416 46 199 0.0 3.0 0.00 0.73 0.00 95 999.1
20260831093912 46 153 0.0 2.0 0.00 0.73 0.00 94 999.4
20260831091926 47 192 0.0 0.0 0.00 0.73 0.00 95 999.5
20260831085926 47 189 0.0 0.0 0.00 0.73 0.00 96 999.9
20260831083926 47 184 0.0 0.0 0.00 0.73 0.00 95 1000.0
20260831082416 46 221 0.0 3.0 0.00 0.73 0.00 95 1000.2
20260831080419 46 215 1.0 4.0 0.00 0.73 0.00 94 1000.2
20260831074435 47 217 2.0 4.0 0.00 0.73 0.00 94 1000.2
20260831072923 48 213 2.0 4.0 0.00 0.73 0.00 93 1000.3
20260831071418 49 216 2.0 4.0 0.00 0.73 0.00 93 1000.2
20260831065423 50 216 2.0 5.0 0.00 0.73 0.00 92 1000.3
20260831063430 51 236 4.0 8.0 0.00 0.73 0.00 93 1000.3
20260831061929 52 222 5.0 8.0 0.00 0.73 0.00 93 1000.5
20260831055939 52 230 3.0 6.0 0.01 0.73 0.00 92 1000.6
20260831054435 53 259 2.0 4.0 0.01 0.73 0.73 91 1000.7
20260831052426 54 259 3.0 7.0 0.01 0.73 0.73 90 1001.3
20260831050429 55 270 5.0 9.0 0.00 0.72 0.72 90 1001.4
20260831044928 56 259 6.0 13.0 0.00 0.72 0.72 91 1001.6
20260831042934 57 242 8.0 17.0 0.01 0.72 0.72 91 1001.1
20260831040931 59 301 10.0 25.0 0.01 0.72 0.72 93 1000.7